TimeCST,TemperatureF,Dew PointF,Humidity,Sea Level PressureIn,VisibilityMPH,Wind Direction,Wind SpeedMPH,Gust SpeedMPH,PrecipitationIn,Events,Conditions,WindDirDegrees,DateUTC
12:54 AM,46.0,34.0,63,30.27,10.0,NW,6.9,-,N/A,,Clear,310,2012-11-23 06:54:00
1:54 AM,45.0,32.0,60,30.27,10.0,Calm,Calm,-,N/A,,Clear,0,2012-11-23 07:54:00
2:54 AM,44.1,30.9,60,30.27,10.0,West,8.1,-,N/A,,Clear,260,2012-11-23 08:54:00
3:54 AM,44.1,28.0,53,30.28,10.0,WNW,11.5,20.7,N/A,,Clear,300,2012-11-23 09:54:00
4:54 AM,39.9,19.0,43,30.32,10.0,WNW,16.1,34.5,N/A,,Clear,300,2012-11-23 10:54:00
5:54 AM,35.1,18.0,50,30.36,9.0,NW,19.6,26.5,0.00,,Scattered Clouds,310,2012-11-23 11:54:00
6:54 AM,32.0,14.0,48,30.41,9.0,NW,21.9,29.9,0.00,Snow,Light Snow,320,2012-11-23 12:54:00
7:54 AM,30.9,15.1,52,30.44,10.0,NW,16.1,25.3,0.00,,Clear,320,2012-11-23 13:54:00
8:54 AM,32.0,15.1,50,30.46,9.0,NW,17.3,27.6,0.00,Snow,Light Snow,320,2012-11-23 14:54:00
8:59 AM,32.0,15.8,51,30.45,9.0,NW,17.3,27.6,0.00,,Clear,320,2012-11-23 14:59:00
9:54 AM,34.0,16.0,48,30.49,10.0,NW,16.1,26.5,0.00,,Clear,320,2012-11-23 15:54:00
10:54 AM,36.0,15.1,43,30.50,10.0,NW,13.8,23.0,N/A,,Clear,310,2012-11-23 16:54:00
11:54 AM,37.0,15.1,41,30.48,10.0,NW,16.1,21.9,N/A,,Clear,320,2012-11-23 17:54:00
12:54 PM,39.0,14.0,36,30.45,10.0,NW,15.0,19.6,N/A,,Clear,310,2012-11-23 18:54:00
1:54 PM,39.0,14.0,36,30.45,10.0,WNW,13.8,20.7,N/A,,Clear,290,2012-11-23 19:54:00
2:54 PM,39.9,12.0,32,30.45,10.0,NNW,12.7,-,N/A,,Clear,330,2012-11-23 20:54:00
3:54 PM,39.0,10.9,32,30.45,10.0,NW,8.1,17.3,N/A,,Clear,310,2012-11-23 21:54:00
4:54 PM,37.0,10.0,33,30.45,10.0,NW,10.4,-,N/A,,Clear,310,2012-11-23 22:54:00
5:54 PM,36.0,10.0,34,30.46,10.0,NNW,6.9,-,N/A,,Clear,330,2012-11-23 23:54:00
6:54 PM,33.1,10.9,40,30.47,10.0,WNW,3.5,-,N/A,,Clear,290,2012-11-24 00:54:00
7:54 PM,32.0,10.9,42,30.47,10.0,WNW,4.6,-,N/A,,Clear,300,2012-11-24 01:54:00
8:54 PM,32.0,10.9,42,30.46,10.0,Calm,Calm,-,N/A,,Clear,0,2012-11-24 02:54:00
9:54 PM,30.9,10.9,43,30.46,10.0,Calm,Calm,-,N/A,,Clear,0,2012-11-24 03:54:00
10:54 PM,30.0,10.9,45,30.46,10.0,Calm,Calm,-,N/A,,Clear,0,2012-11-24 04:54:00
11:54 PM,28.9,10.9,47,30.45,10.0,Calm,Calm,-,N/A,,Clear,0,2012-11-24 05:54:00